Location: Moscow Pond
(43.6842°N, 73.2366°W)
Time: 06:29:45
(UTC+00:00)

CZ-3 R/B - Pass Details

Date: 08 November 2025
Orbit: 547 x 10008 km, 28.3° (Epoch: 10 December)

Event Time Altitude Azimuth Distance (km) Brightness Sun altitude
Exits shadow 08:32:35 14° 213° (SSW) 6,698 5.4 -33.7°
Maximum altitude 08:43:27 23° 176° (S) 3,818 4.4 -31.8°
Drops below altitude 10° 08:50:08 10° 127° (SE) 3,361 4.8 -30.6°
Sets 08:52:47 0° 111° (ESE) 3,795 5.5 -30.1°
